This demonstration page uses our WeatherBlox Daily Observations layout. Learn more.

Left ArrowRight Arrow

41.86663, -103.66717

Hourly Observations for July 14, 2019

Temp ( °F °C ) Dew Point ( °F °C ) Humidity (%) Winds ( mph kmh ) Pressure ( in mb ) Visibility ( mi km ) Precip ( " mm )
12:53 am 00:53 Clear 77 25 N/A N/A S 7 11 29.87 1012 10 16 N/A
1:53 am 01:53 Clear 79 26 N/A N/A S 8 13 29.85 1011 10 16 N/A
2:53 am 02:53 Clear 75 24 N/A N/A ESE 9 15 29.87 1011 10 16 N/A
3:53 am 03:53 Clear 72 22 N/A N/A E 5 7 29.86 1011 10 16 N/A
4:53 am 04:53 Clear 66 19 N/A N/A NNW 5 7 29.89 1012 10 16 N/A
5:53 am 05:53 Sunny 63 17 N/A N/A NE 6 9 29.91 1013 10 16 N/A
6:53 am 06:53 Sunny 70 21 N/A N/A ESE 6 9 29.92 1013 10 16 N/A
7:53 am 07:53 Sunny 73 23 N/A N/A N N/A 29.93 1014 10 16 N/A
8:53 am 08:53 Sunny 79 26 N/A N/A NNW 5 7 29.93 1014 10 16 N/A
9:53 am 09:53 Sunny 82 28 N/A N/A WNW 7 11 29.92 1013 10 16 N/A
10:53 am 10:53 Sunny 88 31 N/A N/A W 10 17 29.91 1013 10 16 N/A
11:53 am 11:53 Sunny 90 32 N/A N/A WNW 9 15 29.90 1012 10 16 N/A
12:53 pm 12:53 Sunny 91 33 N/A N/A WSW 7 11 29.89 1012 10 16 N/A
1:53 pm 13:53 Sunny 93 34 N/A N/A WNW 6 9 29.87 1012 10 16 N/A
2:53 pm 14:53 Sunny 95 35 N/A N/A NW 6 9 29.86 1011 10 16 N/A
3:53 pm 15:53 Sunny 97 36 N/A N/A WNW 9 15 29.85 1011 10 16 N/A
4:53 pm 16:53 Sunny 95 35 N/A N/A N N/A 29.85 1011 10 16 N/A
5:53 pm 17:53 Sunny 88 31 N/A N/A SSW 17 28 29.87 1012 10 16 N/A
6:53 pm 18:53 Sunny 88 31 N/A N/A SSW 13 20 29.84 1011 10 16 N/A
7:53 pm 19:53 Sunny 82 28 N/A N/A SSW 6 9 29.85 1011 10 16 N/A
8:53 pm 20:53 Clear 77 25 N/A N/A N N/A 29.85 1011 10 16 N/A
9:53 pm 21:53 Mostly Cloudy 79 26 N/A N/A NNW 13 20 29.93 1014 10 16 N/A
10:01 pm 22:01 Mostly Cloudy with Thunderstorms 82 28 N/A N/A N 12 19 29.81 1010 10 16 N/A
10:17 pm 22:17 Mostly Cloudy with Nearby Thunderstorms 70 21 N/A N/A NNE 22 35 29.92 1013 3 5 0.21 5.33
10:25 pm 22:25 Mostly Cloudy with Nearby Thunderstorms 70 21 N/A N/A NE 17 28 29.92 1013 7 11 N/A
10:42 pm 22:42 Partly Cloudy with Nearby Thunderstorms 70 21 N/A N/A ESE 18 30 29.90 1012 10 16 0.23 5.84
10:51 pm 22:51 Mostly Cloudy 72 22 N/A N/A SE 17 28 29.88 1012 10 16 N/A
10:53 pm 22:53 Mostly Cloudy 72 22 N/A N/A SE 16 26 29.94 1014 10 16 0.23 5.84
11:53 pm 23:53 Clear 70 21 N/A N/A SE 14 22 29.91 1013 10 16 N/A

Powered by AerisWeather